Location: Central Coast
(33.3208°S, 151.2336°E)
Time: 00:34:24
(UTC+11:00)

Vanguard 2 - Visible Passes

Search period start: 24 January 2018 00:00
Search period end: 03 February 2018 00:00
Orbit: 553 x 2939 km, 32.9° (Epoch: 22 January)

Date Brightness Start Highest point End Pass type
(mag) Time Alt. Az. Time Alt. Az. Time Alt. Az.
25 Jan 9.1 20:24:50 10° W 20:30:49 29° NW 20:35:02 10° NNE visible
26 Jan 9.5 20:43:46 10° W 20:48:27 20° NW 20:52:02 10° N visible
27 Jan 9.9 21:03:38 10° WNW 21:05:58 12° NW 21:08:01 10° NNW visible
